Time,TemperatureF,DewpointF,PressureIn,WindDirection,WindDirectionDegrees,WindSpeedMPH,WindSpeedGustMPH,Humidity,HourlyPrecipIn,Conditions,Clouds,dailyrainin,SoftwareType,DateUTC
2013-10-09 00:16:00,77.8,71.0,30.02,ENE,67,3.0,8.0,79,0.00,,,0.00,weatherlink.com 1.10,2013-10-09 10:16:00,
2013-10-09 00:34:00,78.0,71.0,30.02,ENE,59,0.0,3.0,80,0.00,,,0.00,weatherlink.com 1.10,2013-10-09 10:34:00,
2013-10-09 00:53:00,78.0,71.0,30.02,ENE,65,3.0,7.0,78,0.00,,,0.00,weatherlink.com 1.10,2013-10-09 10:53:00,
2013-10-09 01:11:00,77.8,70.0,30.01,East,96,0.0,6.0,77,0.00,,,0.00,weatherlink.com 1.10,2013-10-09 11:11:00,
2013-10-09 01:29:00,76.6,69.0,30.01,ENE,75,2.0,8.0,77,0.00,,,0.00,weatherlink.com 1.10,2013-10-09 11:29:00,
2013-10-09 01:47:00,76.2,70.0,30.01,East,101,0.0,4.0,81,0.01,,,0.01,weatherlink.com 1.10,2013-10-09 11:47:00,
2013-10-09 02:05:00,76.7,70.0,30.00,ESE,123,0.0,3.0,79,0.01,,,0.01,weatherlink.com 1.10,2013-10-09 12:05:00,
2013-10-09 02:23:00,76.8,70.0,30.00,ESE,113,0.0,6.0,79,0.01,,,0.01,weatherlink.com 1.10,2013-10-09 12:23:00,
2013-10-09 02:41:00,77.1,70.0,30.00,ENE,71,1.0,4.0,79,0.00,,,0.01,weatherlink.com 1.10,2013-10-09 12:41:00,
2013-10-09 02:59:00,77.1,70.0,30.00,NE,55,0.0,4.0,79,0.00,,,0.01,weatherlink.com 1.10,2013-10-09 12:59:00,
2013-10-09 03:18:00,77.3,70.0,29.99,SSW,193,1.0,6.0,78,0.00,,,0.01,weatherlink.com 1.10,2013-10-09 13:18:00,
2013-10-09 03:35:00,77.3,70.0,29.99,SSE,159,4.0,8.0,77,0.00,,,0.01,weatherlink.com 1.10,2013-10-09 13:35:00,
2013-10-09 03:54:00,77.5,70.0,29.99,East,101,0.0,9.0,78,0.00,,,0.01,weatherlink.com 1.10,2013-10-09 13:54:00,
2013-10-09 04:12:00,77.6,71.0,29.99,ENE,77,0.0,9.0,79,0.00,,,0.01,weatherlink.com 1.10,2013-10-09 14:12:00,
2013-10-09 04:30:00,77.6,70.0,29.99,ENE,70,0.0,7.0,78,0.00,,,0.01,weatherlink.com 1.10,2013-10-09 14:30:00,
2013-10-09 04:48:00,77.7,70.0,29.99,East,91,0.0,7.0,78,0.00,,,0.01,weatherlink.com 1.10,2013-10-09 14:48:00,
2013-10-09 05:06:00,77.6,70.0,29.99,East,83,5.0,7.0,77,0.00,,,0.01,weatherlink.com 1.10,2013-10-09 15:06:00,
2013-10-09 05:25:00,77.6,70.0,30.00,ESE,123,0.0,8.0,77,0.00,,,0.01,weatherlink.com 1.10,2013-10-09 15:25:00,
2013-10-09 05:43:00,77.7,70.0,30.00,ESE,108,0.0,9.0,76,0.00,,,0.01,weatherlink.com 1.10,2013-10-09 15:43:00,
2013-10-09 06:01:00,77.8,70.0,30.01,NE,45,5.0,14.0,76,0.00,,,0.01,weatherlink.com 1.10,2013-10-09 16:01:00,
2013-10-09 06:19:00,77.6,70.0,30.01,NE,46,0.0,8.0,77,0.00,,,0.01,weatherlink.com 1.10,2013-10-09 16:19:00,
2013-10-09 06:36:00,77.3,70.0,30.01,East,92,6.0,9.0,77,0.00,,,0.01,weatherlink.com 1.10,2013-10-09 16:36:00,
2013-10-09 06:54:00,77.5,70.0,30.01,ESE,102,0.0,8.0,77,0.00,,,0.01,weatherlink.com 1.10,2013-10-09 16:54:00,
2013-10-09 07:12:00,78.3,70.0,30.02,SSE,150,0.0,7.0,76,0.00,,,0.01,weatherlink.com 1.10,2013-10-09 17:12:00,
2013-10-09 07:31:00,78.5,70.0,30.02,ESE,106,3.0,8.0,76,0.00,,,0.01,weatherlink.com 1.10,2013-10-09 17:31:00,
2013-10-09 07:49:00,78.9,71.0,30.03,ESE,111,1.0,4.0,77,0.00,,,0.01,weatherlink.com 1.10,2013-10-09 17:49:00,
2013-10-09 08:07:00,79.2,71.0,30.03,ENE,74,2.0,7.0,75,0.00,,,0.01,weatherlink.com 1.10,2013-10-09 18:07:00,
2013-10-09 08:25:00,79.4,71.0,30.04,South,172,0.0,9.0,75,0.00,,,0.01,weatherlink.com 1.10,2013-10-09 18:25:00,
2013-10-09 08:43:00,80.4,71.0,30.04,SE,138,2.0,11.0,74,0.00,,,0.01,weatherlink.com 1.10,2013-10-09 18:43:00,
2013-10-09 09:01:00,80.5,72.0,30.04,ESE,109,5.0,10.0,75,0.00,,,0.01,weatherlink.com 1.10,2013-10-09 19:01:00,
2013-10-09 09:19:00,81.3,71.0,30.04,SSE,163,3.0,9.0,72,0.00,,,0.01,weatherlink.com 1.10,2013-10-09 19:19:00,
2013-10-09 09:37:00,82.3,71.0,30.04,East,92,0.0,7.0,69,0.00,,,0.01,weatherlink.com 1.10,2013-10-09 19:37:00,
2013-10-09 09:55:00,81.6,72.0,30.04,NNE,31,0.0,7.0,72,0.00,,,0.01,weatherlink.com 1.10,2013-10-09 19:55:00,
2013-10-09 10:13:00,82.4,72.0,30.04,East,95,1.0,8.0,71,0.00,,,0.01,weatherlink.com 1.10,2013-10-09 20:13:00,
2013-10-09 10:31:00,83.2,72.0,30.03,NE,34,3.0,11.0,70,0.00,,,0.01,weatherlink.com 1.10,2013-10-09 20:31:00,
2013-10-09 10:49:00,82.2,72.0,30.03,ENE,76,7.0,8.0,72,0.00,,,0.01,weatherlink.com 1.10,2013-10-09 20:49:00,
2013-10-09 11:07:00,82.5,73.0,30.03,ENE,73,4.0,7.0,73,0.00,,,0.01,weatherlink.com 1.10,2013-10-09 21:07:00,
2013-10-09 11:26:00,81.9,73.0,30.02,NNE,15,2.0,9.0,74,0.00,,,0.01,weatherlink.com 1.10,2013-10-09 21:26:00,
2013-10-09 11:44:00,82.4,72.0,30.02,ENE,78,2.0,14.0,71,0.00,,,0.01,weatherlink.com 1.10,2013-10-09 21:44:00,
2013-10-09 12:02:00,83.1,71.0,30.01,ENE,65,8.0,8.0,68,0.00,,,0.01,weatherlink.com 1.10,2013-10-09 22:02:00,
2013-10-09 12:20:00,83.2,72.0,30.00,ESE,115,2.0,12.0,70,0.00,,,0.01,weatherlink.com 1.10,2013-10-09 22:20:00,
2013-10-09 12:38:00,83.3,72.0,29.99,SSE,153,2.0,9.0,69,0.00,,,0.01,weatherlink.com 1.10,2013-10-09 22:38:00,
2013-10-09 12:56:00,82.3,72.0,29.99,NE,42,2.0,7.0,72,0.00,,,0.01,weatherlink.com 1.10,2013-10-09 22:56:00,
2013-10-09 13:14:00,82.3,72.0,29.98,NE,50,2.0,10.0,71,0.00,,,0.01,weatherlink.com 1.10,2013-10-09 23:14:00,
2013-10-09 13:32:00,83.2,72.0,29.98,ESE,121,0.0,10.0,69,0.00,,,0.01,weatherlink.com 1.10,2013-10-09 23:32:00,
2013-10-09 13:51:00,82.9,72.0,29.97,NNE,26,3.0,10.0,70,0.00,,,0.01,weatherlink.com 1.10,2013-10-09 23:51:00,
2013-10-09 14:09:00,81.5,72.0,29.96,NNE,31,3.0,13.0,73,0.00,,,0.01,weatherlink.com 1.10,2013-10-10 00:09:00,
2013-10-09 14:28:00,82.4,72.0,29.96,NNE,15,2.0,11.0,72,0.00,,,0.01,weatherlink.com 1.10,2013-10-10 00:28:00,
2013-10-09 14:46:00,81.0,71.0,29.96,ESE,108,0.0,9.0,72,0.00,,,0.01,weatherlink.com 1.10,2013-10-10 00:46:00,
2013-10-09 15:04:00,81.3,71.0,29.95,NE,47,0.0,6.0,71,0.00,,,0.01,weatherlink.com 1.10,2013-10-10 01:04:00,
2013-10-09 15:22:00,81.6,71.0,29.95,NE,36,0.0,7.0,71,0.00,,,0.01,weatherlink.com 1.10,2013-10-10 01:22:00,
2013-10-09 15:40:00,81.1,71.0,29.95,ESE,103,3.0,11.0,72,0.00,,,0.01,weatherlink.com 1.10,2013-10-10 01:40:00,
2013-10-09 15:58:00,80.9,71.0,29.95,NE,53,3.0,7.0,73,0.00,,,0.01,weatherlink.com 1.10,2013-10-10 01:58:00,
2013-10-09 16:16:00,80.2,71.0,29.95,NNE,27,1.0,8.0,74,0.00,,,0.01,weatherlink.com 1.10,2013-10-10 02:16:00,
2013-10-09 16:34:00,79.8,71.0,29.96,East,90,0.0,6.0,75,0.00,,,0.01,weatherlink.com 1.10,2013-10-10 02:34:00,
2013-10-09 16:52:00,79.7,71.0,29.96,ENE,68,0.0,6.0,75,0.00,,,0.01,weatherlink.com 1.10,2013-10-10 02:52:00,
2013-10-09 17:10:00,79.3,71.0,29.96,ENE,65,0.0,9.0,76,0.00,,,0.01,weatherlink.com 1.10,2013-10-10 03:10:00,
2013-10-09 17:29:00,79.0,71.0,29.97,East,82,1.0,9.0,76,0.00,,,0.01,weatherlink.com 1.10,2013-10-10 03:29:00,
2013-10-09 17:47:00,78.7,70.0,29.97,ESE,116,0.0,6.0,75,0.00,,,0.01,weatherlink.com 1.10,2013-10-10 03:47:00,
2013-10-09 18:07:00,78.5,71.0,29.98,East,95,0.0,7.0,77,0.00,,,0.01,weatherlink.com 1.10,2013-10-10 04:07:00,
2013-10-09 18:25:00,78.5,71.0,29.98,NNE,28,0.0,5.0,77,0.00,,,0.01,weatherlink.com 1.10,2013-10-10 04:25:00,
2013-10-09 18:43:00,78.4,71.0,29.99,ENE,63,3.0,8.0,77,0.00,,,0.01,weatherlink.com 1.10,2013-10-10 04:43:00,
2013-10-09 19:02:00,78.2,71.0,29.98,East,96,0.0,9.0,78,0.00,,,0.01,weatherlink.com 1.10,2013-10-10 05:02:00,
2013-10-09 19:19:00,78.1,71.0,29.99,ENE,62,1.0,8.0,78,0.00,,,0.01,weatherlink.com 1.10,2013-10-10 05:19:00,
2013-10-09 19:38:00,78.0,71.0,29.99,East,100,1.0,7.0,78,0.00,,,0.01,weatherlink.com 1.10,2013-10-10 05:38:00,
2013-10-09 19:56:00,78.1,71.0,29.99,NNE,16,5.0,7.0,79,0.00,,,0.01,weatherlink.com 1.10,2013-10-10 05:56:00,
2013-10-09 20:14:00,78.1,71.0,30.00,ESE,121,3.0,8.0,78,0.00,,,0.01,weatherlink.com 1.10,2013-10-10 06:14:00,
2013-10-09 20:33:00,78.1,71.0,30.00,East,98,1.0,6.0,78,0.00,,,0.01,weatherlink.com 1.10,2013-10-10 06:33:00,
2013-10-09 20:51:00,77.3,71.0,30.00,NE,45,0.0,8.0,81,0.00,,,0.01,weatherlink.com 1.10,2013-10-10 06:51:00,
2013-10-09 21:09:00,76.7,71.0,30.00,East,91,3.0,8.0,83,0.00,,,0.01,weatherlink.com 1.10,2013-10-10 07:09:00,
2013-10-09 21:27:00,76.8,70.0,30.00,ENE,76,1.0,8.0,80,0.00,,,0.01,weatherlink.com 1.10,2013-10-10 07:27:00,
2013-10-09 21:46:00,77.1,70.0,30.00,ENE,63,2.0,7.0,80,0.00,,,0.01,weatherlink.com 1.10,2013-10-10 07:46:00,
2013-10-09 22:04:00,77.2,71.0,30.00,ENE,78,0.0,5.0,81,0.00,,,0.01,weatherlink.com 1.10,2013-10-10 08:04:00,
2013-10-09 22:22:00,77.2,71.0,30.00,East,91,1.0,7.0,80,0.00,,,0.01,weatherlink.com 1.10,2013-10-10 08:22:00,
2013-10-09 22:40:00,77.2,70.0,30.00,ENE,59,0.0,7.0,79,0.00,,,0.01,weatherlink.com 1.10,2013-10-10 08:40:00,
2013-10-09 22:58:00,77.2,71.0,30.00,East,94,0.0,5.0,80,0.00,,,0.01,weatherlink.com 1.10,2013-10-10 08:58:00,
2013-10-09 23:17:00,77.1,70.0,29.99,ENE,66,0.0,6.0,80,0.00,,,0.01,weatherlink.com 1.10,2013-10-10 09:17:00,
2013-10-09 23:35:00,77.1,71.0,29.99,ESE,119,0.0,5.0,81,0.00,,,0.01,weatherlink.com 1.10,2013-10-10 09:35:00,
2013-10-09 23:53:00,76.9,70.0,29.99,East,81,5.0,7.0,80,0.00,,,0.01,weatherlink.com 1.10,2013-10-10 09:53:00,